Temperature
21 21 21 21 18 16 18 19 19 19 19 19 19 19 18 17 18 18 17 17 17 18 18 18 18 18 18 17 17 17 17 18 18 18 18 18 18 18 18 18 18 17 18 18 18 18 18 18 18
21 21 21 20 17 17 18 19 19 19 19 19 19 18 18 17 17 17 17 17 17 18 18 18 18 17 17 17 17 17 17 17 18 18 18 18 18 18 17 17 17 17 17 17 17 17 18 18 18
21 21 21 16 17 17 19 19 19 19 20 20 19 18 17 17 17 17 17 17 17 18 18 17 17 17 17 17 17 17 17 17 17 17 17 17 17 17 17 17 17 17 17 17 17 17 17 17 17
21 21 20 17 18 18 18 19 19 19 20 19 18 17 17 17 18 18 17 17 17 18 17 17 17 17 17 17 17 17 17 17 17 17 17 17 17 17 17 17 17 17 17 17 17 17 17 17 17
21 21 17 17 18 19 18 19 20 19 19 19 18 17 17 17 18 18 18 17 17 17 17 17 17 17 17 17 17 17 17 17 17 17 17 17 17 17 17 17 17 17 17 17 17 17 17 17 17
21 18 17 17 18 19 19 20 19 19 19 18 18 17 17 17 18 18 18 17 17 17 17 17 17 17 17 17 17 17 17 17 17 17 17 17 17 17 17 17 17 17 17 17 17 17 17 17 17
19 16 17 18 18 19 20 20 19 19 18 18 18 17 17 17 18 17 17 17 17 17 17 17 17 17 17 17 17 17 17 17 17 17 17 17 17 17 17 17 17 17 17 16 16 16 17 17 17
21 16 17 17 18 19 19 20 20 19 19 19 19 17 17 17 17 17 17 17 17 17 17 17 17 17 17 17 17 17 16 16 16 16 16 16 16 16 16 16 16 16 16 16 16 16 16 17 17
21 16 17 18 18 19 19 19 19 19 19 18 18 18 18 18 17 17 17 17 17 17 17 17 17 17 17 17 17 16 16 16 16 16 16 16 16 16 16 16 16 16 16 16 16 16 16 16 16
19 16 18 19 18 19 19 19 19 19 18 18 18 18 18 18 17 17 17 17 17 17 17 17 17 17 17 16 16 16 16 16 16 16 16 16 16 16 16 16 16 16 16 16 16 16 16 16 16
19 18 19 19 19 20 19 19 19 19 18 18 18 18 18 18 17 18 17 17 17 17 17 17 17 17 17 16 16 16 16 16 16 16 16 16 16 16 16 16 16 16 16 16 16 16 16 16 16
18 19 19 20 20 20 19 19 19 18 19 19 19 19 18 18 18 18 17 17 17 17 17 17 17 17 16 16 16 16 16 16 16 16 16 16 15 15 15 15 15 15 15 15 15 15 15 15 15
19 19 19 20 20 20 19 19 19 18 19 19 19 18 18 18 18 18 18 17 17 17 17 17 17 16 16 16 16 16 16 16 16 16 15 15 15 15 15 15 15 15 15 15 15 15 15 15 15
19 19 19 19 20 19 19 18 18 18 18 19 18 18 18 18 18 18 18 18 17 17 17 17 16 16 16 16 16 16 16 16 15 15 15 15 15 15 15 15 15 15 15 15 15 15 14 14 14
19 18 18 19 19 19 19 18 17 18 18 18 18 18 18 18 18 18 18 18 17 17 17 17 17 16 16 16 16 16 16 15 15 15 15 15 15 15 15 15 14 14 14 14 14 14 14 14 14
18 17 17 18 18 19 19 17 17 17 17 17 17 17 17 18 18 18 18 18 17 17 17 17 16 16 16 16 16 16 16 15 15 15 15 15 15 15 15 14 14 14 14 14 14 14 14 14 14
17 16 17 18 18 18 18 17 17 17 17 16 16 17 17 17 18 18 17 17 17 17 17 17 17 16 16 16 16 16 16 15 15 15 15 15 15 14 14 14 14 14 14 14 14 14 14 14 14
17 17 17 17 18 17 17 16 16 16 16 16 16 17 17 17 17 18 17 17 17 17 17 17 16 16 16 16 16 16 16 15 15 15 15 15 15 14 14 14 14 14 14 14 14 14 14 14 13
17 17 17 17 18 17 16 16 16 16 16 16 16 16 17 17 18 17 17 17 17 17 17 17 16 16 16 16 16 16 15 15 15 15 15 14 14 14 14 14 14 14 14 13 13 13 13 13 13
17 17 17 17 18 17 16 16 16 15 15 16 16 16 17 17 17 17 17 17 17 17 17 16 16 16 16 16 16 16 15 15 15 15 14 14 14 14 14 14 14 14 13 13 13 13 13 13 13
18 17 17 17 17 17 17 16 16 15 15 16 16 16 17 17 17 17 17 17 17 17 17 16 16 16 16 16 16 15 15 15 15 14 14 14 14 14 14 14 14 13 13 13 13 13 13 13 13
17 18 18 18 16 15 16 15 16 15 15 15 16 16 17 17 17 17 17 17 17 17 16 16 16 16 16 16 15 15 15 15 14 14 14 14 14 14 13 13 13 13 13 13 13 13 13 13 13
18 18 17 17 16 15 15 15 15 15 15 15 15 16 16 17 17 17 17 17 17 17 17 16 16 16 16 15 15 15 15 15 14 14 14 14 14 13 13 13 13 13 13 13 13 13 13 13 13
17 16 16 14 14 15 15 15 15 14 15 15 15 16 16 17 17 17 17 17 16 16 16 16 16 16 15 15 15 15 15 14 14 14 14 14 14 13 13 13 13 13 13 13 13 13 13 13 12
16 15 15 15 14 14 15 15 14 15 15 15 15 16 17 17 17 17 17 16 16 16 16 16 16 16 15 15 15 15 14 14 14 14 14 14 13 13 13 13 13 13 13 13 13 13 12 12 12
16 15 15 15 14 14 14 14 15 15 15 16 16 16 16 17 17 17 17 16 16 16 16 16 15 15 15 15 15 14 14 14 14 14 14 14 13 13 13 13 13 13 13 13 12 12 12 12 12
16 15 15 13 14 14 14 14 15 15 15 15 15 16 16 17 17 17 17 16 16 16 16 15 15 15 15 15 14 14 14 14 14 14 13 13 13 13 13 13 13 13 13 12 12 12 12 12 12
16 14 13 13 14 14 14 14 14 15 15 14 14 15 16 17 17 17 16 16 16 16 16 15 15 15 15 14 14 14 14 14 13 13 13 13 13 13 13 13 13 13 12 12 12 12 12 12 12
15 15 13 12 13 13 14 14 15 15 15 14 14 16 16 17 17 17 16 16 16 16 15 15 15 14 14 14 14 14 13 13 13 13 13 13 13 13 13 13 13 13 12 12 12 12 12 12 12
16 15 13 14 13 12 12 13 15 14 14 14 15 16 16 16 16 16 16 16 15 15 15 15 15 14 14 14 13 13 13 13 13 13 13 12 12 12 12 12 12 12 12 12 12 12 12 12 12
Wind_Speed
3 3 3 4 6 6 3 2 0 1 3 3 4 6 7 5 3 3 1 1 2 1 3 3 5 7 8 9 9 10 10 10 11 11 12 12 12 11 11 11 11 11 11 11 11 11 11 11 11
1 2 4 5 5 4 2 2 1 1 4 4 5 6 6 4 3 3 1 1 2 2 3 4 6 7 8 9 9 10 10 11 11 12 12 12 12 12 11 11 11 11 11 11 11 11 10 10 11
1 3 4 5 4 4 2 0 3 3 3 2 4 5 4 3 2 2 2 2 3 3 4 5 7 8 8 9 9 10 10 11 11 12 12 13 12 12 12 11 11 11 11 11 11 11 11 10 10
3 5 5 6 4 1 2 2 3 4 4 5 4 5 3 2 2 3 4 4 4 3 4 5 7 7 8 9 9 10 11 11 11 11 12 12 12 11 11 11 10 11 11 11 10 11 11 10 10
4 5 6 4 2 1 0 1 2 3 3 4 4 4 2 4 4 6 5 4 4 3 4 5 7 7 8 8 8 9 10 11 11 11 11 11 12 12 11 11 11 11 12 12 11 11 10 10 11
5 5 5 3 1 2 1 1 2 4 4 3 4 4 1 1 4 5 4 4 3 3 4 5 6 7 8 8 8 9 10 10 11 11 11 12 12 13 13 13 13 13 12 12 12 12 11 10 10
5 5 4 3 1 1 1 2 3 4 4 2 4 4 1 1 2 4 4 4 3 3 4 4 5 6 7 8 8 9 10 11 11 12 12 13 13 13 14 15 15 14 13 13 13 11 11 10 10
5 5 4 2 2 0 1 2 2 3 3 3 4 6 4 4 4 5 5 4 4 3 3 3 4 6 6 7 7 9 10 10 11 12 12 13 13 13 14 14 14 15 15 14 13 12 11 10 10
4 5 3 3 4 1 1 2 2 2 4 3 2 3 3 7 7 6 5 3 3 2 3 3 3 4 5 6 7 7 9 9 10 10 11 12 11 11 12 13 14 15 15 14 14 13 13 12 11
5 4 3 3 4 3 1 2 2 3 4 3 4 4 7 8 8 7 5 3 1 0 1 2 2 2 4 4 6 7 7 8 9 8 9 9 10 10 11 14 14 14 14 14 14 13 13 11 9
4 4 2 0 2 3 2 2 2 5 1 3 5 7 8 7 6 5 4 3 2 1 0 1 1 2 3 3 4 5 6 6 7 7 7 8 9 9 10 10 10 11 12 11 11 11 10 9 8
4 1 2 1 2 3 3 2 2 2 2 3 6 8 8 8 7 6 5 3 2 1 1 0 1 2 2 3 3 4 4 4 5 6 7 7 5 6 6 6 7 8 8 8 8 8 9 9 9
3 1 2 2 3 3 4 3 2 0 1 5 7 8 7 7 5 4 3 3 3 2 2 1 0 1 2 3 2 3 3 4 4 5 6 6 4 4 4 5 6 6 7 7 6 6 7 7 7
2 3 2 2 2 1 3 2 2 0 3 6 7 7 6 6 5 4 3 3 3 3 3 1 1 2 3 3 2 2 3 4 5 4 5 6 5 4 4 4 4 5 6 7 6 6 5 5 6
4 4 4 3 2 1 4 3 1 2 5 6 5 5 5 4 4 4 5 4 4 4 3 2 2 2 3 3 3 3 3 4 3 3 4 5 5 5 4 4 4 4 6 7 6 6 6 5 6
4 4 2 3 1 1 4 2 3 3 6 5 4 3 3 3 4 4 4 3 3 3 3 3 3 3 2 2 3 3 3 4 3 3 4 5 5 5 4 4 3 4 5 5 4 4 5 5 5
4 1 1 3 0 2 3 3 2 3 6 5 4 4 4 3 3 3 3 3 4 4 4 3 3 3 3 3 3 3 4 3 3 3 3 4 4 5 4 3 3 4 4 3 4 4 3 4 4
3 2 2 3 2 2 2 4 3 3 5 5 5 4 4 5 6 4 3 3 3 3 3 3 3 3 3 3 3 3 3 2 3 2 2 4 4 5 5 3 3 4 4 3 3 4 4 3 3
4 4 2 3 2 2 3 5 5 4 5 5 5 6 6 7 5 3 2 3 3 3 4 4 4 3 3 2 2 2 1 1 1 1 2 3 4 4 4 3 3 3 3 3 3 3 4 3 2
3 3 2 2 1 2 2 5 5 4 6 7 8 7 7 6 4 3 3 3 4 3 3 4 4 3 3 3 2 2 2 1 1 1 2 2 2 3 3 3 3 3 3 3 3 3 2 2 2
1 4 3 2 2 2 1 5 4 3 3 3 5 5 6 7 7 5 4 4 4 4 4 4 4 4 3 3 3 3 3 3 2 1 0 1 2 2 3 3 3 3 3 3 2 3 3 2 1
3 4 4 2 2 2 1 3 6 3 3 5 6 6 7 7 6 6 6 5 5 5 4 4 4 4 4 4 5 5 3 2 2 1 1 0 1 2 3 3 3 3 2 3 2 2 2 3 1
3 1 2 2 2 1 1 2 7 2 4 6 6 7 7 6 6 6 6 6 5 5 5 4 4 4 4 4 5 5 3 2 1 1 1 1 0 1 1 3 3 2 2 2 2 2 2 2 2
3 5 5 4 3 1 3 3 6 4 6 5 4 5 6 5 4 4 3 3 3 3 4 4 5 4 4 4 4 5 5 3 3 2 1 1 0 0 1 2 2 2 2 2 2 2 2 2 2
4 5 3 3 2 5 3 3 8 6 5 5 5 5 5 5 4 4 4 3 3 3 4 4 5 4 4 5 4 4 5 5 4 3 3 2 1 1 1 1 2 2 2 2 2 2 2 2 2
3 6 6 4 4 5 2 5 7 5 3 3 3 3 3 4 5 5 5 5 5 4 4 5 5 4 4 5 4 3 4 3 3 3 3 3 2 2 2 1 2 2 2 2 2 2 2 2 2
4 3 5 5 1 2 5 6 7 2 2 1 1 2 4 5 5 5 5 5 5 5 5 5 6 5 4 5 4 3 3 3 3 3 2 2 2 2 2 2 2 1 2 2 2 2 2 2 2
4 7 5 4 2 3 6 5 5 6 5 3 3 4 5 5 4 4 4 5 5 5 5 5 5 5 4 4 4 3 3 3 3 3 3 3 2 1 2 2 1 1 1 2 2 2 1 2 1
3 3 4 4 4 4 4 7 5 6 6 6 6 6 5 5 5 4 4 4 4 3 4 4 4 3 2 3 3 3 2 2 3 3 3 3 2 2 2 2 2 1 1 2 2 2 2 2 2
4 5 6 4 4 4 3 8 5 5 5 5 5 4 3 3 4 4 4 4 4 4 3 4 4 4 3 3 3 3 2 2 2 2 2 2 2 2 2 2 2 2 2 2 2 2 2 2 2
Wind_Direction
352 56 79 57 56 54 48 348 92 46 52 50 68 83 95 86 88 121 279 96 76 52 24 37 60 67 65 67 69 67 65 63 65 69 71 72 77 80 82 87 92 96 98 99 99 101 104 104 101
35 74 57 59 79 75 352 326 83 90 136 131 74 73 74 66 68 101 73 88 88 75 44 54 69 70 69 69 70 70 69 67 67 69 72 72 73 76 76 79 87 93 96 95 92 92 95 99 97
85 58 75 70 88 136 159 276 125 86 104 97 75 58 75 78 98 133 172 127 88 64 46 56 72 73 71 70 71 71 70 66 66 68 69 71 73 75 74 74 80 86 89 90 90 89 88 91 92
76 49 56 69 81 169 175 177 135 110 67 54 89 69 53 33 140 148 132 113 94 64 48 56 71 73 74 72 74 74 73 70 67 67 68 69 70 71 72 76 82 87 90 90 90 90 89 90 92
61 73 64 60 41 352 86 188 116 98 81 64 85 93 50 4 96 119 122 116 114 82 54 60 69 68 71 73 73 77 76 73 70 66 69 69 69 67 67 70 80 90 89 88 92 92 88 90 88
55 67 83 95 43 359 9 53 97 92 95 91 93 100 69 62 112 127 119 109 106 91 60 57 66 67 67 67 73 76 75 74 71 67 66 67 68 67 65 68 80 86 88 88 90 91 87 85 84
95 88 112 128 106 34 47 73 105 112 108 124 125 108 108 153 142 124 105 92 81 73 61 51 54 59 64 64 70 76 78 76 72 69 64 63 65 67 67 68 74 79 82 85 85 85 86 85 82
113 99 91 108 123 68 348 71 81 97 113 108 114 136 175 194 138 104 86 70 63 54 49 45 49 54 54 56 67 77 78 77 73 71 66 64 60 59 63 67 71 75 78 80 79 77 82 81 80
84 78 121 170 157 186 41 82 45 46 97 79 75 143 159 133 121 105 86 62 48 47 28 31 41 48 55 60 62 69 71 69 66 65 65 63 55 52 54 63 69 71 73 75 75 74 76 75 72
78 114 185 194 173 156 89 93 114 74 64 59 60 69 107 121 128 126 128 135 137 353 351 22 23 40 54 68 61 61 65 60 58 60 64 62 57 53 53 55 63 68 69 69 69 70 68 66 63
92 145 172 130 151 128 96 67 85 120 121 193 165 148 135 134 137 143 157 171 195 210 264 16 17 43 69 76 74 64 62 61 60 61 67 68 61 55 52 51 53 57 59 60 61 60 56 58 60
94 101 139 144 115 108 120 106 83 132 222 192 152 147 145 152 160 169 178 188 181 167 211 18 38 75 82 90 85 78 71 67 62 60 69 76 67 59 55 54 54 55 57 59 59 61 59 59 59
86 95 60 94 86 99 100 97 123 13 53 106 118 130 147 158 167 179 183 179 171 185 204 197 136 119 108 99 98 91 85 82 78 75 75 82 79 74 66 63 58 58 62 63 63 63 60 59 57
121 87 52 51 74 58 99 58 95 282 108 115 133 152 164 168 175 174 178 180 186 192 198 181 150 126 119 123 119 105 99 96 86 75 77 85 85 82 79 70 59 54 60 66 71 69 65 61 60
84 65 20 12 47 78 99 22 265 186 132 134 155 167 172 181 185 193 195 190 191 190 183 174 160 121 121 124 119 105 98 99 90 82 80 83 88 90 89 82 68 55 64 69 69 63 65 64 57
61 60 12 307 60 104 118 245 274 149 141 156 177 188 195 213 216 221 206 190 177 167 169 181 164 135 130 126 118 109 101 98 92 91 83 81 91 100 95 90 78 72 75 74 74 64 66 60 56
44 94 248 301 296 117 133 232 260 159 157 179 202 211 216 234 251 244 225 201 178 167 163 167 151 145 145 131 115 104 98 91 88 93 91 92 98 109 108 104 94 90 85 74 81 66 77 75 64
199 191 230 257 276 125 174 250 258 198 182 198 211 224 225 224 235 232 219 194 169 156 149 144 144 139 129 114 97 83 79 74 71 79 92 104 107 113 111 103 93 97 93 72 72 73 60 72 68
168 167 220 258 254 156 214 259 265 219 208 214 219 222 227 235 242 228 196 158 132 132 141 145 142 149 135 123 128 123 128 107 78 62 87 106 111 114 112 108 101 99 106 110 100 89 69 50 43
159 156 235 298 323 170 241 278 275 218 216 216 216 221 227 238 245 221 186 159 154 153 155 156 159 158 164 155 146 138 133 125 121 67 59 83 108 122 128 123 121 116 110 102 104 103 89 50 44
200 181 199 221 5 34 17 321 298 269 229 224 222 223 224 227 229 219 202 187 168 168 175 174 173 162 160 146 115 99 77 60 52 46 41 24 99 110 114 127 129 131 131 141 143 134 125 129 35
234 223 185 162 109 297 81 281 287 273 263 241 236 230 231 234 229 216 205 196 190 193 179 169 160 156 154 145 141 138 142 155 190 195 206 205 97 115 126 128 128 136 142 150 166 147 144 136 142
207 92 124 131 145 353 1 199 283 294 263 254 242 233 234 231 220 212 207 202 197 187 173 167 151 152 152 147 151 149 149 165 149 131 132 139 134 125 130 136 134 148 160 164 156 140 140 145 155
126 72 57 51 75 293 245 193 276 247 233 248 244 237 229 217 207 197 189 176 175 167 161 154 148 149 149 154 154 161 163 159 146 144 153 162 157 176 144 147 149 162 174 180 180 172 161 164 156
83 90 34 355 355 256 262 212 251 255 236 226 237 241 221 196 184 178 171 169 172 166 163 160 154 160 162 162 169 176 174 169 173 179 182 177 182 212 223 173 173 177 190 187 171 169 181 178 167
160 141 158 201 230 278 298 238 254 268 265 232 228 228 204 191 187 186 186 183 184 175 164 163 165 170 171 174 184 186 177 178 190 190 185 188 200 213 207 187 182 182 181 184 171 177 188 179 179
135 157 161 138 173 272 276 284 299 292 317 280 245 216 209 204 195 191 186 183 182 179 175 176 174 171 177 182 182 184 184 183 191 190 185 189 196 197 179 172 181 180 182 176 171 182 194 178 183
141 144 109 127 168 261 289 278 257 265 262 259 246 234 227 209 199 194 188 187 186 184 177 171 171 178 180 178 181 179 185 187 183 175 185 195 194 182 168 173 184 190 186 175 167 176 190 161 185
116 118 120 130 160 175 266 273 233 236 232 233 237 236 225 210 202 197 198 192 180 159 153 160 162 156 159 170 171 165 174 171 166 178 199 197 184 181 185 192 191 190 188 184 170 186 182 182 200
184 176 156 165 216 186 208 268 283 267 241 222 234 241 228 213 199 191 186 175 164 159 154 158 163 165 176 172 160 164 165 158 167 191 207 192 188 196 192 185 178 188 194 188 180 197 197 195 202
Height
1491 1491 1492 1493 1497 1510 1515 1511 1507 1506 1506 1507 1506 1507 1509 1512 1516 1521 1518 1516 1516 1515 1514 1514 1513 1513 1512 1511 1510 1510 1509 1508 1507 1507 1506 1505 1505 1504 1504 1504 1504 1505 1506 1507 1508 1510 1511 1512 1513
1492 1492 1494 1494 1507 1522 1519 1510 1508 1506 1507 1507 1508 1509 1511 1513 1514 1516 1516 1516 1517 1516 1516 1515 1515 1514 1513 1513 1512 1511 1511 1510 1509 1508 1508 1507 1507 1506 1505 1505 1506 1507 1508 1509 1510 1511 1512 1513 1514
1492 1493 1495 1499 1512 1520 1516 1509 1507 1507 1507 1508 1509 1511 1513 1515 1516 1516 1517 1517 1518 1517 1517 1516 1516 1516 1515 1514 1514 1513 1512 1512 1511 1511 1510 1509 1508 1508 1507 1506 1506 1507 1508 1510 1511 1512 1513 1514 1515
1493 1495 1497 1506 1513 1512 1510 1508 1507 1507 1508 1509 1510 1513 1515 1517 1517 1518 1518 1518 1518 1518 1518 1518 1517 1517 1516 1516 1515 1515 1514 1514 1513 1513 1512 1511 1510 1509 1508 1507 1506 1507 1509 1511 1512 1514 1515 1516 1517
1494 1495 1505 1514 1513 1510 1508 1507 1507 1507 1509 1511 1511 1514 1516 1518 1518 1518 1519 1519 1519 1519 1519 1519 1519 1518 1518 1518 1517 1516 1516 1515 1515 1515 1514 1513 1512 1511 1509 1505 1504 1506 1510 1512 1514 1515 1516 1517 1518
1495 1498 1514 1520 1515 1510 1508 1508 1508 1509 1510 1512 1513 1515 1518 1519 1519 1519 1520 1520 1521 1520 1520 1520 1520 1519 1519 1519 1518 1518 1518 1517 1517 1516 1516 1515 1514 1513 1510 1505 1504 1508 1511 1513 1515 1517 1518 1519 1519
1497 1504 1514 1516 1516 1512 1509 1509 1509 1510 1511 1513 1513 1516 1518 1519 1520 1521 1521 1522 1522 1521 1521 1521 1521 1520 1520 1520 1520 1520 1519 1519 1519 1518 1518 1517 1516 1516 1514 1512 1511 1513 1514 1516 1517 1518 1519 1520 1521
1497 1504 1513 1516 1515 1513 1510 1509 1510 1511 1512 1513 1514 1515 1517 1519 1520 1521 1522 1522 1522 1522 1522 1522 1522 1522 1521 1521 1521 1521 1521 1521 1521 1520 1520 1520 1519 1518 1518 1517 1517 1517 1517 1518 1519 1520 1521 1522 1522
1499 1509 1517 1515 1514 1512 1510 1510 1512 1512 1513 1514 1514 1515 1517 1519 1520 1521 1522 1523 1523 1523 1523 1523 1523 1522 1522 1522 1522 1522 1522 1522 1522 1522 1522 1522 1521 1521 1520 1520 1520 1520 1520 1521 1521 1522 1523 1523 1523
1500 1513 1512 1509 1509 1510 1510 1511 1512 1513 1514 1515 1515 1516 1518 1519 1521 1522 1522 1523 1523 1523 1523 1523 1523 1522 1522 1522 1523 1523 1524 1524 1524 1524 1524 1524 1524 1524 1523 1523 1523 1523 1523 1523 1524 1524 1524 1524 1525
1502 1508 1507 1508 1508 1509 1510 1511 1512 1513 1515 1515 1515 1516 1518 1520 1521 1522 1523 1524 1524 1524 1524 1524 1523 1522 1522 1522 1523 1524 1525 1526 1526 1526 1526 1526 1526 1526 1526 1525 1525 1525 1525 1525 1525 1526 1526 1526 1526
1504 1506 1506 1508 1508 1509 1511 1512 1513 1514 1515 1515 1515 1516 1518 1520 1521 1523 1524 1524 1525 1525 1525 1524 1523 1522 1522 1523 1524 1525 1526 1527 1527 1528 1528 1528 1528 1528 1527 1527 1527 1527 1527 1527 1527 1527 1527 1528 1528
1505 1507 1507 1508 1509 1510 1511 1512 1513 1514 1515 1515 1516 1518 1519 1520 1522 1523 1524 1525 1525 1525 1525 1525 1524 1523 1523 1524 1525 1526 1527 1528 1529 1529 1529 1529 1529 1529 1529 1529 1528 1528 1528 1528 1528 1529 1529 1529 1529
1507 1508 1509 1509 1510 1511 1512 1513 1514 1515 1515 1516 1517 1518 1519 1521 1522 1523 1524 1524 1525 1525 1526 1525 1525 1524 1525 1525 1526 1527 1528 1529 1530 1530 1530 1531 1531 1531 1531 1530 1530 1530 1530 1530 1530 1530 1530 1530 1530
1507 1510 1511 1511 1511 1512 1513 1516 1515 1515 1516 1516 1517 1519 1520 1521 1522 1523 1524 1524 1525 1525 1526 1526 1526 1525 1526 1526 1527 1528 1529 1530 1531 1531 1532 1532 1532 1532 1532 1532 1532 1532 1532 1532 1532 1532 1532 1532 1532
1510 1516 1520 1514 1512 1512 1516 1522 1515 1515 1516 1516 1518 1519 1520 1521 1522 1523 1524 1524 1525 1525 1526 1526 1526 1526 1526 1527 1528 1529 1530 1531 1531 1532 1533 1533 1533 1533 1533 1533 1533 1533 1533 1533 1533 1533 1533 1533 1533
1518 1524 1522 1517 1512 1513 1516 1519 1515 1515 1516 1516 1517 1518 1519 1520 1521 1522 1523 1524 1524 1525 1525 1526 1527 1527 1527 1528 1529 1530 1530 1531 1532 1533 1533 1533 1533 1534 1534 1534 1534 1534 1534 1534 1534 1534 1534 1534 1534
1523 1523 1522 1520 1514 1514 1517 1518 1515 1515 1516 1516 1517 1518 1518 1519 1520 1521 1522 1523 1524 1525 1525 1526 1527 1527 1528 1529 1529 1530 1531 1532 1532 1533 1533 1534 1534 1535 1535 1535 1535 1535 1535 1535 1535 1535 1535 1535 1535
1515 1519 1521 1518 1513 1515 1517 1517 1514 1514 1515 1515 1515 1516 1516 1517 1519 1520 1521 1522 1523 1523 1524 1525 1526 1527 1528 1528 1529 1530 1531 1532 1532 1533 1533 1534 1534 1535 1535 1535 1536 1536 1536 1536 1536 1536 1536 1536 1536
1514 1519 1520 1516 1513 1515 1517 1516 1512 1512 1512 1512 1512 1513 1514 1515 1517 1518 1519 1520 1521 1522 1523 1524 1525 1526 1527 1528 1529 1530 1531 1532 1532 1533 1533 1534 1534 1535 1535 1535 1536 1536 1536 1536 1537 1537 1537 1537 1537
1515 1518 1518 1518 1515 1515 1517 1519 1514 1511 1510 1510 1511 1511 1512 1513 1514 1515 1517 1518 1519 1520 1522 1523 1525 1526 1527 1528 1529 1530 1531 1531 1532 1532 1533 1533 1534 1534 1534 1535 1535 1536 1536 1536 1537 1537 1537 1537 1538
1517 1511 1512 1515 1522 1527 1523 1532 1517 1512 1510 1508 1508 1509 1509 1511 1511 1513 1514 1515 1517 1518 1520 1522 1523 1525 1526 1527 1528 1528 1529 1530 1530 1531 1532 1532 1533 1533 1534 1534 1535 1535 1536 1536 1536 1537 1537 1537 1537
1511 1509 1512 1515 1521 1528 1526 1531 1522 1512 1510 1507 1505 1505 1506 1507 1508 1510 1511 1513 1515 1517 1519 1521 1522 1523 1524 1525 1527 1528 1528 1529 1530 1530 1531 1531 1532 1532 1533 1533 1534 1534 1535 1535 1536 1536 1536 1537 1537
1508 1512 1517 1522 1527 1535 1527 1531 1525 1514 1507 1503 1502 1502 1503 1504 1506 1507 1509 1511 1513 1515 1517 1519 1520 1522 1523 1524 1525 1526 1527 1528 1528 1529 1529 1530 1530 1531 1532 1532 1533 1533 1534 1534 1535 1535 1536 1536 1536
1510 1522 1535 1535 1540 1537 1526 1527 1521 1504 1501 1500 1500 1500 1500 1502 1503 1505 1507 1509 1511 1513 1515 1516 1518 1519 1521 1522 1523 1525 1526 1526 1527 1527 1528 1528 1529 1529 1530 1531 1531 1532 1533 1533 1534 1534 1534 1534 1535
1513 1519 1535 1542 1542 1537 1527 1526 1512 1500 1498 1498 1498 1498 1499 1500 1501 1503 1505 1507 1509 1511 1513 1514 1516 1517 1519 1520 1522 1523 1524 1524 1525 1526 1526 1527 1527 1528 1528 1529 1530 1530 1531 1531 1532 1532 1532 1533 1533
1513 1519 1520 1533 1535 1538 1531 1520 1507 1498 1497 1497 1497 1497 1497 1498 1500 1501 1503 1505 1507 1509 1510 1512 1514 1515 1517 1518 1519 1520 1521 1522 1523 1524 1524 1525 1526 1526 1527 1527 1528 1528 1529 1529 1530 1530 1531 1531 1531
1508 1514 1525 1532 1539 1540 1530 1523 1515 1502 1499 1497 1496 1496 1496 1497 1498 1500 1501 1503 1505 1507 1509 1510 1512 1513 1515 1516 1517 1518 1519 1520 1521 1521 1522 1523 1524 1524 1525 1525 1526 1526 1527 1527 1527 1528 1528 1529 1529
1512 1516 1521 1530 1532 1539 1537 1524 1501 1498 1495 1495 1494 1494 1494 1495 1497 1498 1500 1502 1504 1505 1507 1509 1510 1512 1513 1514 1515 1516 1517 1518 1518 1519 1520 1520 1521 1522 1522 1523 1524 1524 1524 1525 1525 1526 1526 1526 1526
1505 1509 1518 1527 1530 1534 1535 1523 1494 1493 1491 1492 1492 1492 1493 1495 1496 1497 1499 1500 1502 1503 1505 1507 1508 1510 1511 1512 1513 1514 1514 1515 1516 1516 1517 1518 1519 1520 1520 1521 1521 1522 1522 1522 1523 1523 1523 1523 1524